Location: Chavenne
(46.6022°N, 3.2951°E)
Time: 16:11:56
(UTC+00:00)

MOS 1 - Pass Details

Date: 09 April 2020
Orbit: 879 x 891 km, 99.2° (Epoch: 04 June)

Event Time Altitude Azimuth Distance (km) Brightness Sun altitude
Rises 19:11:26 0° 159° (SSE) 3,467 7.0 -8.1°
Reaches altitude 10° 19:13:48 10° 159° (SSE) 2,533 6.3 -8.5°
Maximum altitude 19:19:27 81° 72° (ENE) 900 4.3 -9.4°
Drops below altitude 10° 19:25:09 10° 347° (NNW) 2,559 7.2 -10.3°
Sets 19:27:33 0° 346° (NNW) 3,504 8.0 -10.7°
